DW8769 Weather Reports


Display with metric or nautical units.
time (UTC)temp
F
wind
direction
speed
MPH
gust
MPH
rain 1hr
in
rain 24hr
in
rain mn
in
humidity
%
barometer
mb
20260506174907 64 100 3.0 10.0 0.00 0.00 0.00 71 1009.4
20260506174805 64 259 3.0 10.0 0.00 0.00 0.00 71 1009.4
20260506174706 64 335 3.0 10.0 0.00 0.00 0.00 71 1009.4
20260506174606 64 353 3.0 10.0 0.00 0.00 0.00 71 1009.4
20260506174507 64 116 3.0 10.0 0.00 0.00 0.00 71 1009.4
20260506174407 64 340 3.0 10.0 0.00 0.00 0.00 71 1009.4
20260506174306 64 345 3.0 10.0 0.00 0.00 0.00 71 1009.4
20260506174106 64 102 3.0 10.0 0.00 0.00 0.00 71 1009.5
20260506174007 64 154 3.0 10.0 0.00 0.00 0.00 71 1009.6
20260506173906 64 100 3.0 10.0 0.00 0.00 0.00 71 1009.5
20260506173806 64 304 4.0 10.0 0.00 0.00 0.00 71 1009.6
20260506173706 64 16 4.0 10.0 0.00 0.00 0.00 71 1009.6
20260506173507 64 100 4.0 10.0 0.00 0.00 0.00 71 1009.6
20260506173407 64 62 4.0 10.0 0.00 0.00 0.00 71 1009.6
20260506173306 64 347 4.0 14.0 0.00 0.00 0.00 71 1009.6
20260506173206 64 81 4.0 14.0 0.00 0.00 0.00 71 1009.6
20260506173106 64 330 4.0 14.0 0.00 0.00 0.00 71 1009.6
20260506173008 64 75 5.0 14.0 0.00 0.00 0.00 71 1009.6
20260506172906 64 23 4.0 14.0 0.00 0.00 0.00 71 1009.6
20260506172806 64 140 4.0 14.0 0.00 0.00 0.00 71 1009.5
20260506172706 64 152 4.0 14.0 0.00 0.00 0.00 71 1009.5
20260506172606 64 45 4.0 14.0 0.00 0.00 0.00 71 1009.5
20260506172507 64 83 4.0 14.0 0.00 0.00 0.00 71 1009.5
20260506172207 64 55 5.0 14.0 0.00 0.00 0.00 71 1009.5
20260506171906 64 193 6.0 14.0 0.00 0.00 0.00 72 1009.5
20260506171807 64 226 6.0 14.0 0.00 0.00 0.00 72 1009.5
20260506171707 64 110 7.0 14.0 0.00 0.00 0.00 72 1009.5
20260506171606 64 13 7.0 14.0 0.00 0.00 0.00 72 1009.5
20260506171509 64 67 7.0 14.0 0.00 0.00 0.00 72 1009.5
20260506171407 64 48 7.0 14.0 0.00 0.00 0.00 72 1009.5
20260506171306 64 75 7.0 13.0 0.00 0.00 0.00 72 1009.5
20260506171206 64 39 6.0 13.0 0.00 0.00 0.00 71 1009.5
20260506171106 64 79 6.0 14.0 0.00 0.00 0.00 71 1009.5
20260506171008 64 93 6.0 14.0 0.00 0.00 0.00 71 1009.5
20260506170906 64 41 6.0 14.0 0.00 0.00 0.00 70 1009.4
20260506170806 65 72 5.0 14.0 0.00 0.00 0.00 71 1009.4
20260506170606 65 52 5.0 14.0 0.00 0.00 0.00 71 1009.5
20260506170507 65 60 5.0 14.0 0.00 0.00 0.00 71 1009.4
20260506170405 65 23 4.0 14.0 0.00 0.00 0.00 71 1009.4
20260506170307 65 21 4.0 14.0 0.00 0.00 0.00 70 1009.4
20260506170109 65 32 3.0 14.0 0.00 0.00 0.00 71 1009.5
20260506170009 65 75 3.0 13.0 0.00 0.00 0.00 71 1009.5
20260506165906 65 184 3.0 13.0 0.00 0.00 0.00 71 1009.5
20260506165806 65 110 3.0 13.0 0.00 0.00 0.00 70 1009.4
20260506165706 65 103 3.0 13.0 0.00 0.00 0.00 70 1009.5
20260506165606 65 360 2.0 13.0 0.00 0.00 0.00 69 1009.5
20260506165106 65 360 2.0 6.0 0.00 0.00 0.00 70 1009.4
20260506164806 65 190 3.0 12.0 0.00 0.00 0.00 70 1009.4
20260506164708 65 156 3.0 12.0 0.00 0.00 0.00 70 1009.4
20260506164606 65 229 3.0 12.0 0.00 0.00 0.00 70 1009.4
20260506164508 65 345 3.0 12.0 0.00 0.00 0.00 70 1009.4
20260506164406 65 87 3.0 12.0 0.00 0.00 0.00 70 1009.4
20260506164306 65 65 3.0 12.0 0.00 0.00 0.00 71 1009.4
20260506164206 65 16 3.0 12.0 0.00 0.00 0.00 70 1009.5
20260506164105 65 79 3.0 12.0 0.00 0.00 0.00 70 1009.4
20260506164008 65 97 3.0 12.0 0.00 0.00 0.00 71 1009.4
20260506163906 65 125 3.0 10.0 0.00 0.00 0.00 71 1009.5
20260506163806 65 181 3.0 10.0 0.00 0.00 0.00 71 1009.5
20260506163707 65 207 3.0 10.0 0.00 0.00 0.00 71 1009.5
20260506163607 65 150 3.0 10.0 0.00 0.00 0.00 70 1009.5
20260506163508 65 57 3.0 10.0 0.00 0.00 0.00 70 1009.4
20260506163407 65 71 3.0 10.0 0.00 0.00 0.00 70 1009.5
20260506163307 65 176 3.0 10.0 0.00 0.00 0.00 70 1009.5
20260506163207 65 137 3.0 10.0 0.00 0.00 0.00 70 1009.5
20260506163106 65 143 3.0 10.0 0.00 0.00 0.00 70 1009.4
20260506163009 65 159 4.0 11.0 0.00 0.00 0.00 70 1009.4
20260506162906 65 96 4.0 12.0 0.00 0.00 0.00 70 1009.4
20260506162806 65 108 5.0 14.0 0.00 0.00 0.00 69 1009.4
20260506162705 65 345 5.0 14.0 0.00 0.00 0.00 69 1009.4
20260506162608 65 143 5.0 14.0 0.00 0.00 0.00 69 1009.4
20260506162508 65 74 5.0 14.0 0.00 0.00 0.00 69 1009.4
20260506162406 65 11 5.0 14.0 0.00 0.00 0.00 69 1009.3
20260506162307 65 325 5.0 14.0 0.00 0.00 0.00 69 1009.3
20260506162207 65 46 4.0 14.0 0.00 0.00 0.00 69 1009.3
20260506162106 65 123 4.0 14.0 0.00 0.00 0.00 69 1009.4
20260506162008 65 79 3.0 14.0 0.00 0.00 0.00 69 1009.4
20260506161907 66 81 3.0 12.0 0.00 0.00 0.00 69 1009.4
20260506161806 66 39 3.0 12.0 0.00 0.00 0.00 69 1009.4
20260506161705 66 79 2.0 9.0 0.00 0.00 0.00 69 1009.4
20260506161511 66 95 3.0 8.0 0.00 0.00 0.00 69 1009.3
20260506161405 66 49 3.0 11.0 0.00 0.00 0.00 69 1009.3
20260506161311 66 61 2.0 11.0 0.00 0.00 0.00 68 1009.3
20260506161219 66 83 2.0 11.0 0.00 0.00 0.00 68 1009.4
20260506161113 66 291 2.0 11.0 0.00 0.00 0.00 68 1009.4
20260506161009 66 67 3.0 11.0 0.00 0.00 0.00 68 1009.4
20260506160913 66 269 3.0 11.0 0.00 0.00 0.00 68 1009.4
20260506160820 66 33 3.0 11.0 0.00 0.00 0.00 68 1009.3
20260506160720 66 276 3.0 11.0 0.00 0.00 0.00 69 1009.5
20260506160507 66 108 3.0 11.0 0.00 0.00 0.00 69 1009.5
20260506160405 66 151 3.0 10.0 0.00 0.00 0.00 69 1009.5
20260506160206 66 85 3.0 12.0 0.00 0.00 0.00 69 1009.5
20260506160105 66 45 3.0 12.0 0.00 0.00 0.00 70 1009.4
20260506160010 66 8 3.0 12.0 0.00 0.00 0.00 69 1009.5
20260506155906 66 335 3.0 12.0 0.00 0.00 0.00 69 1009.5
20260506155805 66 41 4.0 12.0 0.00 0.00 0.00 69 1009.4
20260506155707 66 103 4.0 12.0 0.00 0.00 0.00 69 1009.5
20260506155606 66 125 4.0 12.0 0.00 0.00 0.00 69 1009.5
20260506155507 66 53 3.0 12.0 0.00 0.00 0.00 69 1009.4
20260506155406 66 113 3.0 11.0 0.00 0.00 0.00 70 1009.4
20260506155306 66 77 3.0 9.0 0.00 0.00 0.00 70 1009.4
20260506155205 66 193 3.0 9.0 0.00 0.00 0.00 70 1009.4
20260506155106 66 264 4.0 9.0 0.00 0.00 0.00 70 1009.4
20260506154906 66 234 4.0 11.0 0.00 0.00 0.00 69 1009.4
20260506154806 65 118 4.0 11.0 0.00 0.00 0.00 69 1009.4
20260506154707 65 259 5.0 11.0 0.00 0.00 0.00 69 1009.4
20260506154508 65 76 5.0 12.0 0.00 0.00 0.00 70 1009.5
20260506154405 65 90 5.0 14.0 0.00 0.00 0.00 70 1009.4
20260506154306 65 48 6.0 14.0 0.00 0.00 0.00 70 1009.5
20260506154206 65 299 6.0 14.0 0.00 0.00 0.00 69 1009.4
20260506154106 65 70 5.0 14.0 0.00 0.00 0.00 70 1009.5
20260506154008 65 120 5.0 14.0 0.00 0.00 0.00 70 1009.4
20260506153805 65 138 5.0 14.0 0.00 0.00 0.00 69 1009.5
20260506153706 65 125 4.0 14.0 0.00 0.00 0.00 69 1009.5
20260506153615 65 116 3.0 14.0 0.00 0.00 0.00 70 1009.5
20260506153508 65 75 3.0 12.0 0.00 0.00 0.00 70 1009.5
20260506153406 65 90 4.0 12.0 0.00 0.00 0.00 70 1009.5
20260506153306 65 118 4.0 12.0 0.00 0.00 0.00 69 1009.4
20260506152906 65 295 5.0 15.0 0.00 0.00 0.00 70 1009.4
20260506152705 65 261 6.0 15.0 0.00 0.00 0.00 70 1009.4
20260506152607 65 182 6.0 15.0 0.00 0.00 0.00 70 1009.4
20260506152508 65 248 6.0 15.0 0.00 0.00 0.00 69 1009.4
20260506152406 65 96 6.0 15.0 0.00 0.00 0.00 69 1009.4
20260506152306 65 113 5.0 15.0 0.00 0.00 0.00 69 1009.4
20260506152206 65 104 5.0 15.0 0.00 0.00 0.00 69 1009.3
20260506152106 65 146 5.0 15.0 0.00 0.00 0.00 69 1009.4
20260506151807 65 146 6.0 13.0 0.00 0.00 0.00 69 1009.3
20260506151707 65 55 5.0 13.0 0.00 0.00 0.00 69 1009.3
20260506151606 65 119 5.0 13.0 0.00 0.00 0.00 69 1009.3
20260506151306 65 77 5.0 13.0 0.00 0.00 0.00 70 1009.4
20260506151106 65 95 5.0 13.0 0.00 0.00 0.00 69 1009.4
20260506151009 65 107 5.0 13.0 0.00 0.00 0.00 69 1009.4
20260506150905 65 84 5.0 13.0 0.00 0.00 0.00 69 1009.5
20260506150805 65 65 5.0 13.0 0.00 0.00 0.00 69 1009.5
20260506150706 65 167 6.0 13.0 0.00 0.00 0.00 70 1009.4
20260506150607 65 88 6.0 13.0 0.00 0.00 0.00 70 1009.5
20260506150508 65 49 6.0 13.0 0.00 0.00 0.00 71 1009.4
20260506150406 65 6 7.0 13.0 0.00 0.00 0.00 71 1009.4
20260506150307 65 101 7.0 13.0 0.00 0.00 0.00 72 1009.4
20260506150205 65 127 7.0 13.0 0.00 0.00 0.00 72 1009.4
20260506150108 65 111 7.0 13.0 0.00 0.00 0.00 72 1009.4
20260506150008 65 89 7.0 14.0 0.00 0.00 0.00 72 1009.4
20260506145907 65 109 7.0 14.0 0.00 0.00 0.00 71 1009.4
20260506145806 65 111 6.0 14.0 0.00 0.00 0.00 71 1009.4
20260506145705 65 29 6.0 14.0 0.00 0.00 0.00 71 1009.4
20260506145607 65 141 6.0 14.0 0.00 0.00 0.00 70 1009.4
20260506145507 65 27 7.0 14.0 0.00 0.00 0.00 70 1009.4
20260506145408 65 139 7.0 15.0 0.00 0.00 0.00 70 1009.4
20260506145319 65 109 7.0 14.0 0.00 0.00 0.00 70 1009.4
20260506145205 65 145 7.0 14.0 0.00 0.00 0.00 70 1009.4
20260506145119 65 95 7.0 15.0 0.00 0.00 0.00 69 1009.4
20260506145030 65 135 7.0 16.0 0.00 0.00 0.00 69 1009.4
20260506144917 65 126 7.0 16.0 0.00 0.00 0.00 70 1009.5
20260506144707 64 179 8.0 16.0 0.00 0.00 0.00 70 1009.5
20260506144607 64 212 8.0 16.0 0.00 0.00 0.00 70 1009.5
20260506144407 64 90 8.0 16.0 0.00 0.00 0.00 70 1009.5
20260506144307 64 168 8.0 16.0 0.00 0.00 0.00 70 1009.6
20260506144007 65 167 7.0 15.0 0.00 0.00 0.00 70 1009.6
20260506143907 65 60 7.0 15.0 0.00 0.00 0.00 70 1009.6
20260506143806 65 100 7.0 15.0 0.00 0.00 0.00 70 1009.6
20260506143706 65 158 7.0 15.0 0.00 0.00 0.00 71 1009.6
20260506143606 65 91 7.0 15.0 0.00 0.00 0.00 72 1009.6
20260506143508 65 154 8.0 16.0 0.00 0.00 0.00 72 1009.6
20260506143307 65 140 7.0 16.0 0.00 0.00 0.00 71 1009.7
20260506143207 65 99 8.0 16.0 0.00 0.00 0.00 72 1009.7
20260506143105 65 54 8.0 16.0 0.00 0.00 0.00 71 1009.7
20260506143009 65 91 8.0 16.0 0.00 0.00 0.00 71 1009.7
20260506142905 65 142 8.0 16.0 0.00 0.00 0.00 71 1009.7
20260506142805 65 145 8.0 16.0 0.00 0.00 0.00 71 1009.7
20260506142607 65 77 8.0 16.0 0.00 0.00 0.00 71 1009.8
20260506142508 65 133 8.0 16.0 0.00 0.00 0.00 71 1009.9
20260506142406 65 76 7.0 16.0 0.00 0.00 0.00 70 1009.8
20260506142306 65 85 7.0 16.0 0.00 0.00 0.00 70 1009.9
20260506142206 65 139 7.0 16.0 0.00 0.00 0.00 70 1009.8
20260506142007 65 105 7.0 16.0 0.00 0.00 0.00 70 1009.9
20260506141907 65 116 7.0 16.0 0.00 0.00 0.00 70 1009.9
20260506141706 65 113 6.0 16.0 0.00 0.00 0.00 70 1010.0
20260506141507 65 335 6.0 16.0 0.00 0.00 0.00 70 1010.0
20260506141405 65 68 6.0 16.0 0.00 0.00 0.00 69 1010.0
20260506141306 65 98 6.0 16.0 0.00 0.00 0.00 69 1009.9
20260506141009 65 102 5.0 14.0 0.00 0.00 0.00 70 1009.9
20260506140908 65 96 6.0 14.0 0.00 0.00 0.00 70 1009.9
20260506140806 65 82 6.0 14.0 0.00 0.00 0.00 70 1009.9
20260506140706 65 75 6.0 14.0 0.00 0.00 0.00 70 1009.9
20260506140606 65 99 6.0 14.0 0.00 0.00 0.00 69 1009.9
20260506140406 65 111 6.0 13.0 0.00 0.00 0.00 70 1009.9
20260506140306 65 145 6.0 12.0 0.00 0.00 0.00 70 1009.9
20260506140205 65 118 6.0 12.0 0.00 0.00 0.00 70 1009.9
20260506140108 65 80 6.0 12.0 0.00 0.00 0.00 70 1009.9
20260506140009 65 112 6.0 12.0 0.00 0.00 0.00 70 1009.9
20260506135907 65 88 7.0 12.0 0.00 0.00 0.00 70 1009.9
20260506135807 65 122 6.0 12.0 0.00 0.00 0.00 69 1009.9
20260506135606 65 116 6.0 16.0 0.00 0.00 0.00 69 1009.9
20260506135507 65 121 6.0 16.0 0.00 0.00 0.00 69 1009.9
20260506135306 66 68 5.0 16.0 0.00 0.00 0.00 69 1010.0
20260506135205 66 86 6.0 16.0 0.00 0.00 0.00 69 1009.9
20260506135105 66 70 5.0 16.0 0.00 0.00 0.00 69 1009.9
20260506135008 66 56 5.0 16.0 0.00 0.00 0.00 69 1009.9
20260506134906 66 90 5.0 16.0 0.00 0.00 0.00 68 1010.0
20260506134705 66 62 5.0 11.0 0.00 0.00 0.00 69 1009.9
20260506134606 66 214 5.0 10.0 0.00 0.00 0.00 68 1009.9
20260506134508 66 137 5.0 15.0 0.00 0.00 0.00 68 1010.0
20260506134306 66 96 5.0 15.0 0.00 0.00 0.00 67 1010.0
20260506134206 66 51 4.0 15.0 0.00 0.00 0.00 66 1009.9
20260506134009 66 113 5.0 15.0 0.00 0.00 0.00 66 1010.0
20260506133906 66 128 5.0 15.0 0.00 0.00 0.00 66 1009.9
20260506133807 66 145 4.0 15.0 0.00 0.00 0.00 66 1010.0
20260506133706 66 91 4.0 15.0 0.00 0.00 0.00 66 1010.0
20260506133606 66 121 4.0 11.0 0.00 0.00 0.00 66 1009.9
20260506133507 66 89 4.0 13.0 0.00 0.00 0.00 67 1009.9
20260506133405 66 81 4.0 13.0 0.00 0.00 0.00 66 1010.0
20260506133305 66 96 4.0 13.0 0.00 0.00 0.00 67 1010.0
20260506133205 66 113 4.0 13.0 0.00 0.00 0.00 67 1010.0
20260506133106 66 73 3.0 13.0 0.00 0.00 0.00 67 1010.0
20260506133009 66 68 4.0 13.0 0.00 0.00 0.00 67 1009.9
20260506132906 66 33 4.0 13.0 0.00 0.00 0.00 67 1009.9
20260506132805 66 232 4.0 13.0 0.00 0.00 0.00 67 1009.9
20260506132705 66 123 4.0 13.0 0.00 0.00 0.00 67 1010.0
20260506132606 66 201 4.0 11.0 0.00 0.00 0.00 67 1010.0
20260506132508 66 3 4.0 11.0 0.00 0.00 0.00 67 1009.9
20260506132407 66 108 3.0 12.0 0.00 0.00 0.00 68 1010.0
20260506132308 66 349 4.0 10.0 0.00 0.00 0.00 67 1009.9
20260506132208 66 60 4.0 10.0 0.00 0.00 0.00 68 1009.9
20260506132106 66 352 4.0 10.0 0.00 0.00 0.00 68 1009.9
20260506132008 66 114 4.0 10.0 0.00 0.00 0.00 68 1009.9
20260506131806 66 63 4.0 13.0 0.00 0.00 0.00 68 1009.9
20260506131705 66 139 4.0 13.0 0.00 0.00 0.00 68 1009.9
20260506131606 66 197 4.0 13.0 0.00 0.00 0.00 69 1010.0
20260506131406 66 197 5.0 13.0 0.00 0.00 0.00 70 1009.9
20260506131306 66 9 5.0 13.0 0.00 0.00 0.00 70 1010.0
20260506131008 66 108 5.0 13.0 0.00 0.00 0.00 69 1010.0
20260506130906 66 56 5.0 13.0 0.00 0.00 0.00 70 1010.1
20260506130806 66 96 5.0 13.0 0.00 0.00 0.00 69 1010.1
20260506130607 66 106 5.0 13.0 0.00 0.00 0.00 68 1010.1
20260506130508 67 62 4.0 13.0 0.00 0.00 0.00 69 1010.2
20260506130405 67 33 4.0 10.0 0.00 0.00 0.00 68 1010.1
20260506130305 67 35 4.0 10.0 0.00 0.00 0.00 68 1010.1
20260506130205 67 102 4.0 12.0 0.00 0.00 0.00 68 1010.1
20260506130106 67 19 4.0 12.0 0.00 0.00 0.00 68 1010.2
20260506130010 67 281 4.0 12.0 0.00 0.00 0.00 68 1010.2
20260506125907 67 203 4.0 12.0 0.00 0.00 0.00 68 1010.2
20260506125806 67 312 4.0 12.0 0.00 0.00 0.00 68 1010.2
20260506125606 67 77 4.0 12.0 0.00 0.00 0.00 67 1010.3
20260506125509 67 293 4.0 12.0 0.00 0.00 0.00 66 1010.3
20260506125407 67 161 4.0 12.0 0.00 0.00 0.00 66 1010.3
20260506125306 67 39 3.0 12.0 0.00 0.00 0.00 66 1010.3
20260506125206 67 330 3.0 12.0 0.00 0.00 0.00 66 1010.3
20260506124907 67 107 3.0 10.0 0.00 0.00 0.00 67 1010.4
20260506124806 67 66 3.0 10.0 0.00 0.00 0.00 67 1010.3
20260506124706 67 187 3.0 12.0 0.00 0.00 0.00 67 1010.3
20260506124607 67 64 3.0 10.0 0.00 0.00 0.00 67 1010.3
20260506124509 67 100 3.0 10.0 0.00 0.00 0.00 67 1010.3
20260506124407 67 29 3.0 10.0 0.00 0.00 0.00 67 1010.3
20260506124306 67 58 4.0 13.0 0.00 0.00 0.00 66 1010.3
20260506124205 67 67 4.0 13.0 0.00 0.00 0.00 67 1010.4
20260506124105 67 37 3.0 13.0 0.00 0.00 0.00 67 1010.4
20260506124008 67 358 4.0 13.0 0.00 0.00 0.00 67 1010.4
20260506123807 66 69 4.0 13.0 0.00 0.00 0.00 67 1010.3
20260506123707 66 91 4.0 14.0 0.00 0.00 0.00 67 1010.3
20260506123607 66 54 4.0 14.0 0.00 0.00 0.00 67 1010.3
20260506123508 66 98 4.0 14.0 0.00 0.00 0.00 67 1010.3
20260506123406 66 150 4.0 14.0 0.00 0.00 0.00 67 1010.3
20260506123305 66 40 4.0 14.0 0.00 0.00 0.00 67 1010.4
20260506123106 66 58 4.0 14.0 0.00 0.00 0.00 67 1010.4
20260506123009 66 122 4.0 14.0 0.00 0.00 0.00 67 1010.4
20260506122905 66 96 4.0 14.0 0.00 0.00 0.00 66 1010.4
20260506122805 66 105 4.0 14.0 0.00 0.00 0.00 66 1010.4
20260506122708 66 98 4.0 12.0 0.00 0.00 0.00 66 1010.4
20260506122607 66 60 4.0 12.0 0.00 0.00 0.00 66 1010.4
20260506122508 66 5 4.0 12.0 0.00 0.00 0.00 65 1010.4
20260506122406 67 110 4.0 12.0 0.00 0.00 0.00 66 1010.4
20260506122307 66 87 4.0 11.0 0.00 0.00 0.00 66 1010.4
20260506122106 66 101 4.0 11.0 0.00 0.00 0.00 65 1010.4
20260506122009 66 40 5.0 10.0 0.00 0.00 0.00 66 1010.4
20260506121806 66 16 6.0 13.0 0.00 0.00 0.00 66 1010.5
20260506121705 66 216 6.0 13.0 0.00 0.00 0.00 67 1010.5
20260506121605 66 4 6.0 15.0 0.00 0.00 0.00 67 1010.4
20260506121302 66 6 7.0 15.0 0.00 0.00 0.00 67 1010.5
20260506121203 66 69 8.0 15.0 0.00 0.00 0.00 67 1010.5
20260506121004 66 71 7.0 15.0 0.00 0.00 0.00 67 1010.5
20260506120903 66 87 7.0 15.0 0.00 0.00 0.00 67 1010.5
20260506120802 66 110 7.0 15.0 0.00 0.00 0.00 67 1010.6
20260506120601 66 94 6.0 15.0 0.00 0.00 0.00 66 1010.5
20260506120518 66 110 6.0 15.0 0.00 0.00 0.00 66 1010.6
20260506120416 66 78 6.0 15.0 0.00 0.00 0.00 64 1010.6
20260506120317 66 110 5.0 15.0 0.00 0.00 0.00 63 1010.5
20260506120217 67 120 4.0 15.0 0.00 0.00 0.00 63 1010.6
20260506120106 67 112 4.0 15.0 0.00 0.00 0.00 63 1010.6
20260506115807 67 139 3.0 9.0 0.00 0.00 0.00 62 1010.6
20260506115606 67 291 3.0 9.0 0.00 0.00 0.00 62 1010.5
20260506115509 67 85 3.0 9.0 0.00 0.00 0.00 62 1010.6
20260506115406 67 142 4.0 9.0 0.00 0.00 0.00 63 1010.7
20260506115307 67 156 3.0 11.0 0.00 0.00 0.00 63 1010.6
20260506115205 67 71 3.0 11.0 0.00 0.00 0.00 63 1010.7
20260506115105 66 55 3.0 11.0 0.00 0.00 0.00 63 1010.6
20260506115009 67 49 3.0 11.0 0.00 0.00 0.00 63 1010.6
20260506114806 66 123 3.0 11.0 0.00 0.00 0.00 65 1010.6
20260506114608 66 175 4.0 11.0 0.00 0.00 0.00 65 1010.7
20260506114508 66 119 4.0 11.0 0.00 0.00 0.00 66 1010.6
20260506114307 66 87 4.0 13.0 0.00 0.00 0.00 67 1010.6
20260506114206 66 54 4.0 13.0 0.00 0.00 0.00 67 1010.7
20260506114107 66 342 5.0 13.0 0.00 0.00 0.00 68 1010.7
20260506113906 66 48 6.0 13.0 0.00 0.00 0.00 68 1010.7
20260506113807 65 83 6.0 13.0 0.00 0.00 0.00 68 1010.7
20260506113707 65 55 6.0 13.0 0.00 0.00 0.00 68 1010.7
20260506113605 65 37 6.0 13.0 0.00 0.00 0.00 67 1010.7
20260506113507 65 52 6.0 13.0 0.00 0.00 0.00 68 1010.7
20260506113407 65 63 6.0 13.0 0.00 0.00 0.00 68 1010.8
20260506113306 65 31 6.0 13.0 0.00 0.00 0.00 69 1010.8
20260506113207 65 68 7.0 13.0 0.00 0.00 0.00 69 1010.7
20260506113107 65 109 7.0 13.0 0.00 0.00 0.00 69 1010.7
20260506113009 65 93 7.0 13.0 0.00 0.00 0.00 70 1010.7
20260506112907 65 44 7.0 13.0 0.00 0.00 0.00 70 1010.8
20260506112806 65 35 8.0 13.0 0.00 0.00 0.00 69 1010.7
20260506112706 65 64 8.0 13.0 0.00 0.00 0.00 69 1010.8
20260506112606 65 55 8.0 13.0 0.00 0.00 0.00 69 1010.8
20260506112508 65 45 8.0 13.0 0.00 0.00 0.00 69 1010.9
20260506112406 65 67 8.0 13.0 0.00 0.00 0.00 69 1010.9
20260506112306 65 62 8.0 13.0 0.00 0.00 0.00 68 1010.9
20260506112106 65 62 8.0 13.0 0.00 0.00 0.00 67 1010.9
20260506112010 65 58 8.0 13.0 0.00 0.00 0.00 67 1010.9
20260506111905 65 60 9.0 13.0 0.00 0.00 0.00 68 1010.9
20260506111805 65 52 9.0 13.0 0.00 0.00 0.00 68 1010.8
20260506111707 65 61 9.0 13.0 0.00 0.00 0.00 68 1010.9
20260506111607 65 87 9.0 13.0 0.00 0.00 0.00 67 1010.9
20260506111508 65 75 9.0 13.0 0.00 0.00 0.00 68 1010.9
20260506111405 65 77 9.0 13.0 0.00 0.00 0.00 68 1010.9
20260506111305 65 52 9.0 15.0 0.00 0.00 0.00 68 1010.9
20260506111205 65 76 9.0 15.0 0.00 0.00 0.00 68 1010.9
20260506111008 65 58 8.0 15.0 0.00 0.00 0.00 68 1010.9
20260506110906 65 66 8.0 15.0 0.00 0.00 0.00 68 1010.9
20260506110805 65 65 8.0 15.0 0.00 0.00 0.00 69 1010.9
20260506110705 65 74 8.0 15.0 0.00 0.00 0.00 69 1010.9
20260506110606 65 58 8.0 15.0 0.00 0.00 0.00 70 1010.8
20260506110508 65 79 8.0 12.0 0.00 0.00 0.00 69 1010.9
20260506110305 65 77 8.0 12.0 0.00 0.00 0.00 69 1010.9
20260506110207 65 75 8.0 12.0 0.00 0.00 0.00 69 1010.9
20260506110107 65 67 7.0 12.0 0.00 0.00 0.00 70 1010.9
20260506110013 65 62 7.0 10.0 0.00 0.00 0.00 69 1010.9
20260506105906 65 57 7.0 11.0 0.00 0.00 0.00 69 1010.9
20260506105806 65 58 7.0 11.0 0.00 0.00 0.00 69 1011.0
20260506105707 65 66 7.0 11.0 0.00 0.00 0.00 69 1011.0
20260506105607 65 65 7.0 11.0 0.00 0.00 0.00 69 1011.1
20260506105508 65 101 7.0 11.0 0.00 0.00 0.00 68 1011.0
20260506105306 65 50 7.0 11.0 0.00 0.00 0.00 67 1011.0
20260506105207 65 60 7.0 11.0 0.00 0.00 0.00 67 1011.0
20260506105105 65 64 6.0 11.0 0.00 0.00 0.00 67 1011.1
20260506105009 65 64 6.0 11.0 0.00 0.00 0.00 67 1011.0
20260506104907 65 42 6.0 11.0 0.00 0.00 0.00 67 1011.0
20260506104806 65 70 6.0 11.0 0.00 0.00 0.00 66 1011.0
20260506104705 65 76 6.0 11.0 0.00 0.00 0.00 66 1011.1
20260506104606 65 86 6.0 11.0 0.00 0.00 0.00 66 1011.0
20260506104407 65 68 6.0 11.0 0.00 0.00 0.00 66 1011.0
20260506104306 65 90 6.0 11.0 0.00 0.00 0.00 66 1011.0
20260506104206 65 64 6.0 11.0 0.00 0.00 0.00 66 1011.0
20260506104107 65 83 6.0 11.0 0.00 0.00 0.00 66 1011.1
20260506104008 65 66 6.0 10.0 0.00 0.00 0.00 66 1011.1
20260506103906 65 82 6.0 10.0 0.00 0.00 0.00 65 1011.0
20260506103807 65 62 6.0 10.0 0.00 0.00 0.00 65 1011.0
20260506103705 65 62 5.0 10.0 0.00 0.00 0.00 65 1011.0
20260506103509 65 68 5.0 10.0 0.00 0.00 0.00 67 1011.0
20260506103407 65 91 5.0 10.0 0.00 0.00 0.00 66 1011.0
20260506103307 65 64 4.0 10.0 0.00 0.00 0.00 66 1011.0
20260506103106 65 78 4.0 8.0 0.00 0.00 0.00 68 1011.1
20260506102906 65 87 4.0 8.0 0.00 0.00 0.00 69 1011.1
20260506102806 65 85 4.0 8.0 0.00 0.00 0.00 69 1011.1
20260506102708 65 62 4.0 8.0 0.00 0.00 0.00 69 1011.1
20260506102607 65 68 4.0 8.0 0.00 0.00 0.00 69 1011.1
20260506102508 65 72 4.0 8.0 0.00 0.00 0.00 69 1011.1
20260506102406 65 53 4.0 8.0 0.00 0.00 0.00 69 1011.1
20260506102306 65 70 4.0 8.0 0.00 0.00 0.00 69 1011.1
20260506102206 65 107 4.0 8.0 0.00 0.00 0.00 69 1011.2
20260506102107 65 64 4.0 8.0 0.00 0.00 0.00 70 1011.1
20260506101708 65 70 5.0 8.0 0.00 0.00 0.00 69 1011.2
20260506101606 65 79 5.0 10.0 0.00 0.00 0.00 69 1011.1
20260506101509 65 77 4.0 10.0 0.00 0.00 0.00 69 1011.2
20260506101308 65 74 4.0 10.0 0.00 0.00 0.00 69 1011.1
20260506101206 65 74 4.0 10.0 0.00 0.00 0.00 69 1011.2
20260506101106 65 58 4.0 10.0 0.00 0.00 0.00 69 1011.2
20260506101009 65 64 4.0 10.0 0.00 0.00 0.00 69 1011.2
20260506100905 65 63 4.0 10.0 0.00 0.00 0.00 68 1011.2
20260506100807 65 75 4.0 10.0 0.00 0.00 0.00 68 1011.2
20260506100705 65 81 4.0 10.0 0.00 0.00 0.00 69 1011.2
20260506100606 65 75 4.0 8.0 0.00 0.00 0.00 68 1011.3
20260506100510 65 316 4.0 9.0 0.00 0.00 0.00 68 1011.2
20260506100406 65 87 4.0 9.0 0.00 0.00 0.00 68 1011.2
20260506100307 65 112 4.0 9.0 0.00 0.00 0.00 68 1011.2
20260506100007 65 76 4.0 9.0 0.00 0.00 0.00 68 1011.2
20260506095907 66 53 3.0 9.0 0.00 0.00 0.00 67 1011.3
20260506095805 66 75 3.0 9.0 0.00 0.00 0.00 67 1011.2
20260506095706 66 68 3.0 9.0 0.00 0.00 0.00 67 1011.2
20260506095605 66 78 2.0 9.0 0.00 0.00 0.00 68 1011.2
20260506095507 66 59 3.0 7.0 0.00 0.00 0.00 68 1011.1
20260506095405 66 20 3.0 8.0 0.00 0.00 0.00 68 1011.1
20260506095306 66 75 3.0 8.0 0.00 0.00 0.00 68 1011.2
20260506095206 66 53 3.0 8.0 0.00 0.00 0.00 68 1011.1
20260506095104 66 102 3.0 8.0 0.00 0.00 0.00 67 1011.2
20260506095008 66 133 3.0 8.0 0.00 0.00 0.00 67 1011.2
20260506094905 66 66 3.0 8.0 0.00 0.00 0.00 67 1011.2
20260506094705 66 73 3.0 8.0 0.00 0.00 0.00 67 1011.2
20260506094605 66 44 3.0 8.0 0.00 0.00 0.00 66 1011.2
20260506094508 66 99 3.0 7.0 0.00 0.00 0.00 67 1011.2
20260506094405 66 73 2.0 6.0 0.00 0.00 0.00 67 1011.2
20260506094204 66 102 2.0 6.0 0.00 0.00 0.00 66 1011.1
20260506094106 66 44 2.0 6.0 0.00 0.00 0.00 66 1011.2
20260506094007 66 60 3.0 6.0 0.00 0.00 0.00 66 1011.2
20260506093804 66 60 3.0 6.0 0.00 0.00 0.00 65 1011.2
20260506093704 66 49 2.0 7.0 0.00 0.00 0.00 66 1011.2
20260506093607 66 13 2.0 7.0 0.00 0.00 0.00 66 1011.2
20260506093507 66 74 3.0 7.0 0.00 0.00 0.00 66 1011.1
20260506093405 66 114 3.0 7.0 0.00 0.00 0.00 66 1011.1
20260506093205 66 116 3.0 7.0 0.00 0.00 0.00 65 1011.1
20260506093008 66 65 3.0 8.0 0.00 0.00 0.00 66 1011.1
20260506092905 66 73 3.0 8.0 0.00 0.00 0.00 66 1011.0
20260506092704 66 67 2.0 8.0 0.00 0.00 0.00 66 1011.0
20260506092607 66 4 3.0 8.0 0.00 0.00 0.00 66 1011.0
20260506092506 66 31 2.0 8.0 0.00 0.00 0.00 66 1011.0
20260506092404 66 68 2.0 8.0 0.00 0.00 0.00 66 1011.0
20260506092306 66 48 2.0 8.0 0.00 0.00 0.00 66 1011.0
20260506092207 66 99 2.0 8.0 0.00 0.00 0.00 67 1011.0
20260506092106 66 62 2.0 7.0 0.00 0.00 0.00 67 1011.0
20260506092008 66 358 2.0 7.0 0.00 0.00 0.00 67 1010.9
20260506091906 66 98 2.0 7.0 0.00 0.00 0.00 68 1010.9
20260506091805 66 132 2.0 7.0 0.00 0.00 0.00 68 1010.9
20260506091706 66 58 3.0 7.0 0.00 0.00 0.00 68 1010.9
20260506091306 66 18 3.0 9.0 0.00 0.00 0.00 68 1010.9
20260506091204 66 91 2.0 9.0 0.00 0.00 0.00 68 1010.8
20260506091105 66 68 2.0 9.0 0.00 0.00 0.00 68 1010.9
20260506091007 66 100 2.0 9.0 0.00 0.00 0.00 68 1010.9
20260506090906 66 51 3.0 9.0 0.00 0.00 0.00 68 1010.9
20260506090507 66 63 3.0 9.0 0.00 0.00 0.00 69 1010.8
20260506090404 66 164 3.0 8.0 0.00 0.00 0.00 69 1010.8
20260506090304 65 226 3.0 8.0 0.00 0.00 0.00 69 1010.8
20260506090205 65 14 4.0 8.0 0.00 0.00 0.00 69 1010.8
20260506090105 65 193 4.0 8.0 0.00 0.00 0.00 69 1010.8
20260506090007 65 10 4.0 8.0 0.00 0.00 0.00 69 1010.7
20260506085906 65 41 3.0 8.0 0.00 0.00 0.00 69 1010.9
20260506085805 65 60 4.0 8.0 0.00 0.00 0.00 69 1010.8
20260506085705 65 55 4.0 8.0 0.00 0.00 0.00 69 1010.8
20260506085604 65 77 4.0 9.0 0.00 0.00 0.00 68 1010.8
20260506085507 65 64 4.0 9.0 0.00 0.00 0.00 69 1010.8
20260506085405 65 56 3.0 9.0 0.00 0.00 0.00 69 1010.7
20260506085306 65 58 3.0 9.0 0.00 0.00 0.00 69 1010.8
20260506085205 65 77 3.0 9.0 0.00 0.00 0.00 69 1010.8
20260506085105 65 65 3.0 9.0 0.00 0.00 0.00 69 1010.7
20260506085007 65 66 4.0 9.0 0.00 0.00 0.00 69 1010.8
20260506084905 65 31 4.0 9.0 0.00 0.00 0.00 68 1010.8
20260506084704 65 74 3.0 9.0 0.00 0.00 0.00 68 1010.7
20260506084605 65 54 3.0 7.0 0.00 0.00 0.00 69 1010.9
20260506084507 65 52 3.0 7.0 0.00 0.00 0.00 69 1010.8
20260506084304 65 43 3.0 8.0 0.00 0.00 0.00 68 1010.8
20260506084204 65 30 3.0 8.0 0.00 0.00 0.00 68 1010.8
20260506084105 65 64 4.0 8.0 0.00 0.00 0.00 68 1010.8
20260506084007 65 62 3.0 8.0 0.00 0.00 0.00 68 1010.9
20260506083908 65 64 3.0 8.0 0.00 0.00 0.00 68 1010.9
20260506083704 65 47 3.0 8.0 0.00 0.00 0.00 69 1010.9
20260506083607 65 47 3.0 10.0 0.00 0.00 0.00 68 1010.8
20260506083508 65 63 3.0 10.0 0.00 0.00 0.00 68 1010.8
20260506083305 65 57 3.0 10.0 0.00 0.00 0.00 68 1011.0
20260506083204 65 59 3.0 10.0 0.00 0.00 0.00 68 1010.9
20260506083106 65 52 3.0 10.0 0.00 0.00 0.00 68 1010.9
20260506082807 65 16 3.0 10.0 0.00 0.00 0.00 67 1010.9
20260506082706 65 64 3.0 10.0 0.00 0.00 0.00 68 1010.8
20260506082605 65 261 4.0 8.0 0.00 0.00 0.00 68 1010.9
20260506082405 65 91 4.0 8.0 0.00 0.00 0.00 67 1010.9
20260506082305 65 71 4.0 8.0 0.00 0.00 0.00 67 1010.9
20260506082206 65 58 4.0 8.0 0.00 0.00 0.00 67 1010.9
20260506082105 65 55 3.0 8.0 0.00 0.00 0.00 67 1010.9
20260506082007 65 37 3.0 8.0 0.00 0.00 0.00 67 1010.9
20260506081906 65 89 3.0 8.0 0.00 0.00 0.00 67 1010.9
20260506081808 65 44 3.0 8.0 0.00 0.00 0.00 66 1010.9
20260506081706 66 39 3.0 8.0 0.00 0.00 0.00 66 1010.8
20260506081606 66 57 3.0 8.0 0.00 0.00 0.00 66 1010.8
20260506081508 66 55 3.0 7.0 0.00 0.00 0.00 66 1010.8
20260506081404 66 100 2.0 7.0 0.00 0.00 0.00 66 1010.7
20260506081307 66 116 2.0 7.0 0.00 0.00 0.00 66 1010.7
20260506081207 66 74 2.0 7.0 0.00 0.00 0.00 66 1010.8
20260506081106 66 344 2.0 7.0 0.00 0.00 0.00 66 1010.7
20260506081008 66 129 2.0 7.0 0.00 0.00 0.00 66 1010.8
20260506080906 66 120 2.0 7.0 0.00 0.00 0.00 66 1010.7
20260506080806 66 94 2.0 7.0 0.00 0.00 0.00 65 1010.7
20260506080607 66 81 2.0 6.0 0.00 0.00 0.00 66 1010.7
20260506080507 66 81 2.0 6.0 0.00 0.00 0.00 67 1010.7
20260506080406 66 81 2.0 6.0 0.00 0.00 0.00 67 1010.6
20260506080206 66 116 2.0 6.0 0.00 0.00 0.00 67 1010.6
20260506073507 65 59 2.0 7.0 0.00 0.00 0.00 67 1010.7
20260506073405 65 62 2.0 6.0 0.00 0.00 0.00 67 1010.7
20260506073306 66 66 1.0 7.0 0.00 0.00 0.00 67 1010.6
20260506073204 66 100 1.0 4.0 0.00 0.00 0.00 67 1010.6
20260506073104 66 89 1.0 4.0 0.00 0.00 0.00 67 1010.6
20260506073007 66 66 1.0 4.0 0.00 0.00 0.00 67 1010.7
20260506072906 66 48 2.0 4.0 0.00 0.00 0.00 68 1010.7
20260506072706 65 30 1.0 6.0 0.00 0.00 0.00 68 1010.6
20260506072507 65 291 2.0 6.0 0.00 0.00 0.00 68 1010.6
20260506072405 65 291 2.0 6.0 0.00 0.00 0.00 67 1010.7
20260506072306 65 291 2.0 6.0 0.00 0.00 0.00 67 1010.7
20260506072206 65 294 2.0 6.0 0.00 0.00 0.00 67 1010.7
20260506072105 65 53 2.0 6.0 0.00 0.00 0.00 67 1010.7
20260506071804 66 360 2.0 5.0 0.00 0.00 0.00 68 1010.6
20260506071705 66 39 2.0 5.0 0.00 0.00 0.00 68 1010.7
20260506071606 66 46 1.0 5.0 0.00 0.00 0.00 68 1010.7
20260506071506 66 330 1.0 5.0 0.00 0.00 0.00 68 1010.7
20260506071407 66 28 1.0 5.0 0.00 0.00 0.00 68 1010.6
20260506071305 66 28 1.0 5.0 0.00 0.00 0.00 68 1010.6
20260506071206 66 29 2.0 5.0 0.00 0.00 0.00 68 1010.7
20260506071105 66 43 2.0 3.0 0.00 0.00 0.00 68 1010.6
20260506071008 66 42 1.0 5.0 0.00 0.00 0.00 68 1010.7
20260506070905 65 72 2.0 5.0 0.00 0.00 0.00 68 1010.7
20260506070806 65 72 2.0 5.0 0.00 0.00 0.00 68 1010.7
20260506070707 65 5 2.0 5.0 0.00 0.00 0.00 68 1010.7
20260506070605 65 5 2.0 5.0 0.00 0.00 0.00 68 1010.7
20260506070507 65 5 2.0 5.0 0.00 0.00 0.00 68 1010.6
20260506070406 65 5 2.0 5.0 0.00 0.00 0.00 68 1010.7
20260506070305 65 339 2.0 5.0 0.00 0.00 0.00 68 1010.6
20260506070105 65 42 1.0 5.0 0.00 0.00 0.00 69 1010.6
20260506062507 62 293 0.0 2.0 0.00 0.00 0.00 72 1010.5
20260506062405 62 293 0.0 2.0 0.00 0.00 0.00 73 1010.5
20260506062306 62 293 0.0 2.0 0.00 0.00 0.00 73 1010.6
20260506062206 62 293 0.0 2.0 0.00 0.00 0.00 73 1010.5
20260506062106 62 293 0.0 2.0 0.00 0.00 0.00 73 1010.6
20260506061907 62 293 0.0 2.0 0.00 0.00 0.00 72 1010.6
20260506061805 62 293 0.0 2.0 0.00 0.00 0.00 73 1010.6
20260506061706 62 293 0.0 0.0 0.00 0.00 0.00 73 1010.6
20260506061605 62 293 0.0 0.0 0.00 0.00 0.00 73 1010.5
20260506061306 62 293 0.0 0.0 0.00 0.00 0.00 73 1010.5
20260506061205 62 293 0.0 1.0 0.00 0.00 0.00 72 1010.4
20260506061106 62 252 0.0 1.0 0.00 0.00 0.00 73 1010.5
20260506061008 62 252 0.0 1.0 0.00 0.00 0.00 73 1010.5
20260506060906 62 252 0.0 1.0 0.00 0.00 0.00 73 1010.5
20260506060805 62 252 0.0 2.0 0.00 0.00 0.00 73 1010.4
20260506060706 62 252 0.0 2.0 0.00 0.00 0.00 73 1010.5
20260506060508 62 252 0.0 2.0 0.00 0.00 0.00 73 1010.4
20260506060407 62 252 0.0 2.0 0.00 0.00 0.00 73 1010.4
20260506060306 62 252 0.0 2.0 0.00 0.00 0.00 73 1010.4
20260506060206 62 252 0.0 2.0 0.00 0.00 0.00 73 1010.5
20260506051406 61 310 0.0 0.0 0.00 0.00 0.00 74 1010.0
20260506051306 61 310 0.0 0.0 0.00 0.00 0.00 73 1010.0
20260506051206 61 310 0.0 0.0 0.00 0.00 0.00 73 1010.0
20260506051108 61 310 0.0 0.0 0.00 0.00 0.00 73 1010.0
20260506050906 61 310 0.0 0.0 0.00 0.00 0.00 73 1009.9
20260506050706 61 310 0.0 0.0 0.00 0.00 0.00 73 1009.9
20260506050607 61 310 0.0 1.0 0.00 0.00 0.00 73 1010.0
20260506050509 61 310 0.0 1.0 0.00 0.00 0.00 73 1010.0
20260506050307 61 310 0.0 2.0 0.00 0.00 0.00 73 1010.0
20260506050205 61 310 0.0 2.0 0.00 0.00 0.00 73 1009.9
20260506050116 61 310 0.0 2.0 0.00 0.00 0.00 73 1010.0
20260506045104 61 310 1.0 2.0 0.00 0.00 0.00 73 1010.0
20260506044905 61 310 1.0 2.0 0.00 0.00 0.00 73 1009.9
20260506044805 61 310 1.0 2.0 0.00 0.00 0.00 73 1009.9
20260506044705 61 310 1.0 2.0 0.00 0.00 0.00 73 1009.8
20260506044606 61 310 1.0 2.0 0.00 0.00 0.00 73 1009.9
20260506044506 61 310 1.0 2.0 0.00 0.00 0.00 73 1009.9
20260506044406 61 310 1.0 2.0 0.00 0.00 0.00 73 1009.9
20260506044304 61 310 1.0 2.0 0.00 0.00 0.00 73 1009.8
20260506044204 61 310 0.0 2.0 0.00 0.00 0.00 73 1009.9
20260506044007 61 310 1.0 2.0 0.00 0.00 0.00 73 1009.8
20260506043805 61 264 1.0 2.0 0.00 0.00 0.00 73 1009.8
20260506043704 61 264 1.0 2.0 0.00 0.00 0.00 73 1009.8
20260506043604 61 264 1.0 2.0 0.00 0.00 0.00 73 1009.9
20260506043507 61 264 1.0 2.0 0.00 0.00 0.00 73 1009.8
20260506043304 61 231 1.0 3.0 0.00 0.00 0.00 73 1009.7
20260506043204 61 253 1.0 3.0 0.00 0.00 0.00 73 1009.8
20260506043105 61 261 1.0 3.0 0.00 0.00 0.00 73 1009.7
20260506042905 61 302 1.0 3.0 0.00 0.00 0.00 74 1009.8
20260506042804 61 301 1.0 3.0 0.00 0.00 0.00 74 1009.8
20260506042705 61 301 1.0 3.0 0.00 0.00 0.00 74 1009.8
20260506042605 61 301 1.0 3.0 0.00 0.00 0.00 74 1009.8
20260506042506 61 293 1.0 4.0 0.00 0.00 0.00 74 1009.8
20260506042405 61 260 1.0 4.0 0.00 0.00 0.00 74 1009.9
20260506042306 61 272 1.0 4.0 0.00 0.00 0.00 74 1009.8
20260506042205 61 231 1.0 4.0 0.00 0.00 0.00 74 1009.8
20260506042105 61 283 1.0 4.0 0.00 0.00 0.00 74 1009.8
20260506042007 61 312 1.0 4.0 0.00 0.00 0.00 74 1009.8
20260506041906 61 285 1.0 4.0 0.00 0.00 0.00 74 1009.8
20260506041805 61 312 1.0 4.0 0.00 0.00 0.00 74 1009.8
20260506041705 61 312 1.0 4.0 0.00 0.00 0.00 74 1009.8
20260506041606 61 321 1.0 2.0 0.00 0.00 0.00 74 1009.8
20260506041506 61 289 1.0 2.0 0.00 0.00 0.00 74 1009.8
20260506041405 61 289 0.0 2.0 0.00 0.00 0.00 74 1009.8
20260506041305 61 309 0.0 2.0 0.00 0.00 0.00 74 1009.9
20260506041205 61 309 1.0 2.0 0.00 0.00 0.00 74 1009.8
20260506041106 61 309 1.0 2.0 0.00 0.00 0.00 74 1009.8
20260506040805 61 318 1.0 3.0 0.00 0.00 0.00 74 1009.8
20260506040705 61 330 1.0 3.0 0.00 0.00 0.00 74 1009.8
20260506040606 61 292 1.0 3.0 0.00 0.00 0.00 74 1009.8
20260506040506 61 292 1.0 3.0 0.00 0.00 0.00 74 1009.8
20260506040305 61 292 1.0 3.0 0.00 0.00 0.00 74 1009.8
20260506040204 61 292 1.0 3.0 0.00 0.00 0.00 74 1009.7
20260506040106 61 278 1.0 3.0 0.00 0.00 0.00 74 1009.8
20260506040007 61 303 1.0 3.0 0.00 0.00 0.00 74 1009.8
20260506035905 61 342 1.0 3.0 0.00 0.00 0.00 74 1009.7
20260506035705 61 271 2.0 3.0 0.00 0.00 0.00 74 1009.8
20260506035606 61 288 1.0 5.0 0.00 0.00 0.00 74 1009.8
20260506035508 61 335 2.0 5.0 0.00 0.00 0.00 74 1009.8
20260506035405 61 335 2.0 5.0 0.00 0.00 0.00 74 1009.8
20260506035306 61 335 2.0 5.0 0.00 0.00 0.00 74 1009.8
20260506035206 61 335 2.0 5.0 0.00 0.00 0.00 74 1009.8
20260506035007 61 354 1.0 5.0 0.00 0.00 0.00 74 1009.9
20260506034905 61 312 1.0 5.0 0.00 0.00 0.00 74 1009.9
20260506034605 61 330 1.0 3.0 0.00 0.00 0.00 74 1009.8
20260506034506 61 343 0.0 3.0 0.00 0.00 0.00 74 1009.8
20260506034405 61 266 0.0 3.0 0.00 0.00 0.00 74 1009.9
20260506034205 61 260 0.0 2.0 0.00 0.00 0.00 74 1009.8
20260506034105 61 260 1.0 2.0 0.00 0.00 0.00 74 1009.8
20260506034007 61 260 1.0 3.0 0.00 0.00 0.00 74 1009.8
20260506033805 61 260 1.0 3.0 0.00 0.00 0.00 74 1009.8
20260506033705 61 260 1.0 3.0 0.00 0.00 0.00 74 1009.8
20260506033508 61 319 1.0 3.0 0.00 0.00 0.00 74 1009.8
20260506033406 61 319 1.0 3.0 0.00 0.00 0.00 74 1009.8
20260506033306 61 319 1.0 3.0 0.00 0.00 0.00 74 1009.8
20260506033205 61 319 1.0 3.0 0.00 0.00 0.00 74 1009.8
20260506033104 61 303 1.0 2.0 0.00 0.00 0.00 74 1009.8
20260506033008 61 303 1.0 2.0 0.00 0.00 0.00 74 1009.8
20260506032905 61 303 1.0 2.0 0.00 0.00 0.00 74 1009.9
20260506032805 61 303 1.0 2.0 0.00 0.00 0.00 74 1009.8
20260506032706 61 303 0.0 2.0 0.00 0.00 0.00 74 1009.8
20260506032507 61 335 0.0 2.0 0.00 0.00 0.00 75 1009.8
20260506032406 61 335 1.0 2.0 0.00 0.00 0.00 75 1009.8
20260506032306 61 265 1.0 2.0 0.00 0.00 0.00 75 1009.8
20260506032205 61 265 1.0 3.0 0.00 0.00 0.00 75 1009.7
20260506032105 61 325 1.0 3.0 0.00 0.00 0.00 75 1009.8
20260506032006 61 325 1.0 3.0 0.00 0.00 0.00 75 1009.9
20260506031905 61 285 1.0 3.0 0.00 0.00 0.00 75 1009.8
20260506031805 61 285 1.0 3.0 0.00 0.00 0.00 75 1009.8
20260506031705 61 285 1.0 3.0 0.00 0.00 0.00 75 1009.8
20260506031605 61 273 1.0 3.0 0.00 0.00 0.00 75 1009.7
20260506031407 61 325 1.0 3.0 0.00 0.00 0.00 75 1009.8
20260506031307 61 32 1.0 3.0 0.00 0.00 0.00 75 1009.9
20260506031205 61 312 1.0 3.0 0.00 0.00 0.00 76 1009.8
20260506031107 61 242 1.0 3.0 0.00 0.00 0.00 76 1009.8
20260506031006 61 320 1.0 3.0 0.00 0.00 0.00 76 1009.8
20260506030904 61 320 1.0 3.0 0.00 0.00 0.00 76 1009.8
20260506030705 61 320 1.0 3.0 0.00 0.00 0.00 76 1009.8
20260506030605 61 320 1.0 3.0 0.00 0.00 0.00 76 1009.8
20260506030506 61 308 1.0 3.0 0.00 0.00 0.00 76 1009.8
20260506030305 61 335 1.0 3.0 0.00 0.00 0.00 76 1009.8
20260506030206 61 287 1.0 2.0 0.00 0.00 0.00 76 1009.8
20260506030105 61 287 1.0 2.0 0.00 0.00 0.00 77 1009.8
20260506030009 61 239 1.0 2.0 0.00 0.00 0.00 77 1009.8
20260506025907 61 239 1.0 2.0 0.00 0.00 0.00 77 1009.9
20260506025804 61 255 1.0 2.0 0.00 0.00 0.00 77 1009.8
20260506025704 61 255 1.0 2.0 0.00 0.00 0.00 77 1009.8
20260506025604 61 289 1.0 2.0 0.00 0.00 0.00 77 1009.9
20260506025507 61 265 1.0 2.0 0.00 0.00 0.00 77 1009.9
20260506025407 61 225 1.0 2.0 0.00 0.00 0.00 77 1009.8
20260506025306 61 257 1.0 2.0 0.00 0.00 0.00 77 1009.8
20260506025204 61 257 1.0 2.0 0.00 0.00 0.00 77 1009.8
20260506025104 61 284 1.0 2.0 0.00 0.00 0.00 77 1009.8
20260506025007 61 284 1.0 2.0 0.00 0.00 0.00 77 1009.9
20260506024806 61 300 1.0 2.0 0.00 0.00 0.00 78 1009.8
20260506024706 61 247 1.0 2.0 0.00 0.00 0.00 77 1009.8
20260506024605 61 247 1.0 3.0 0.00 0.00 0.00 78 1009.8
20260506024306 62 247 1.0 4.0 0.00 0.00 0.00 78 1009.8
20260506024205 62 247 1.0 4.0 0.00 0.00 0.00 78 1009.9
20260506024106 62 247 1.0 4.0 0.00 0.00 0.00 78 1009.8
20260506024007 62 247 1.0 4.0 0.00 0.00 0.00 78 1009.9
20260506023904 62 247 1.0 4.0 0.00 0.00 0.00 78 1009.9
20260506023705 62 247 1.0 4.0 0.00 0.00 0.00 78 1009.9
20260506023605 62 247 1.0 4.0 0.00 0.00 0.00 78 1009.9
20260506023506 62 262 1.0 3.0 0.00 0.00 0.00 78 1009.9
20260506023405 62 295 1.0 3.0 0.00 0.00 0.00 78 1009.8
20260506023305 62 314 1.0 3.0 0.00 0.00 0.00 78 1009.9
20260506023205 62 314 1.0 3.0 0.00 0.00 0.00 78 1009.8
20260506023106 62 314 1.0 3.0 0.00 0.00 0.00 78 1009.9
20260506023007 62 312 1.0 3.0 0.00 0.00 0.00 78 1009.8
20260506022904 62 270 1.0 2.0 0.00 0.00 0.00 78 1009.8
20260506022804 62 273 1.0 2.0 0.00 0.00 0.00 78 1009.9
20260506022704 62 273 1.0 2.0 0.00 0.00 0.00 78 1009.9
20260506022606 62 273 1.0 2.0 0.00 0.00 0.00 78 1009.9
20260506022306 62 241 1.0 2.0 0.00 0.00 0.00 77 1009.8
20260506022207 62 241 1.0 3.0 0.00 0.00 0.00 77 1009.8
20260506022105 62 241 2.0 4.0 0.00 0.00 0.00 77 1009.8
20260506022008 62 256 2.0 4.0 0.00 0.00 0.00 77 1009.8
20260506021908 62 224 2.0 4.0 0.00 0.00 0.00 77 1009.9
20260506021704 62 224 2.0 4.0 0.00 0.00 0.00 77 1009.8
20260506021605 62 272 2.0 4.0 0.00 0.00 0.00 77 1009.8
20260506021506 62 229 2.0 4.0 0.00 0.00 0.00 77 1009.9
20260506021406 62 229 1.0 4.0 0.00 0.00 0.00 78 1009.9
20260506021305 62 341 1.0 4.0 0.00 0.00 0.00 78 1009.9
20260506021205 62 289 1.0 4.0 0.00 0.00 0.00 77 1009.9
20260506021106 62 302 1.0 4.0 0.00 0.00 0.00 77 1009.9
20260506021008 62 320 1.0 4.0 0.00 0.00 0.00 77 1009.9
20260506020906 62 220 1.0 4.0 0.00 0.00 0.00 77 1009.9
20260506020806 63 220 0.0 4.0 0.00 0.00 0.00 77 1009.9
20260506020506 63 241 0.0 3.0 0.00 0.00 0.00 78 1009.9
20260506020404 63 304 0.0 1.0 0.00 0.00 0.00 78 1009.8
20260506020305 63 223 0.0 0.0 0.00 0.00 0.00 78 1009.8
20260506020205 63 76 0.0 0.0 0.00 0.00 0.00 78 1009.8
20260506020105 63 76 0.0 0.0 0.00 0.00 0.00 78 1009.8
20260506020008 63 76 0.0 1.0 0.00 0.00 0.00 78 1009.8
20260506015804 63 76 0.0 3.0 0.00 0.00 0.00 78 1009.8
20260506015704 63 76 1.0 3.0 0.00 0.00 0.00 78 1009.8
20260506015605 63 76 1.0 3.0 0.00 0.00 0.00 78 1009.8
20260506015506 63 76 1.0 3.0 0.00 0.00 0.00 78 1009.7
20260506015206 63 3 1.0 4.0 0.00 0.00 0.00 78 1009.7
20260506015007 63 3 1.0 4.0 0.00 0.00 0.00 78 1009.7
20260506014905 63 34 1.0 4.0 0.00 0.00 0.00 78 1009.7
20260506014705 63 60 0.0 4.0 0.00 0.00 0.00 78 1009.7
20260506014605 63 45 0.0 4.0 0.00 0.00 0.00 78 1009.7
20260506014404 63 3 0.0 3.0 0.00 0.00 0.00 78 1009.7
20260506014304 63 3 0.0 3.0 0.00 0.00 0.00 78 1009.7
20260506014204 63 319 0.0 3.0 0.00 0.00 0.00 78 1009.7
20260506014104 63 279 0.0 3.0 0.00 0.00 0.00 78 1009.8
20260506014008 63 279 1.0 3.0 0.00 0.00 0.00 78 1009.7
20260506013904 63 279 1.0 3.0 0.00 0.00 0.00 78 1009.8
20260506013804 63 279 1.0 3.0 0.00 0.00 0.00 78 1009.8
20260506013706 63 279 1.0 3.0 0.00 0.00 0.00 78 1009.8
20260506013506 63 279 2.0 4.0 0.00 0.00 0.00 78 1009.9
20260506013405 63 279 2.0 4.0 0.00 0.00 0.00 78 1009.8
20260506013305 63 279 2.0 4.0 0.00 0.00 0.00 78 1009.9
20260506013205 63 263 2.0 5.0 0.00 0.00 0.00 78 1009.8
20260506013105 63 325 2.0 5.0 0.00 0.00 0.00 78 1009.9
20260506013007 63 318 2.0 5.0 0.00 0.00 0.00 78 1009.9
20260506012904 63 330 2.0 5.0 0.00 0.00 0.00 78 1009.9
20260506012806 63 210 2.0 5.0 0.00 0.00 0.00 78 1009.9
20260506012705 63 270 2.0 5.0 0.00 0.00 0.00 78 1009.9
20260506012605 63 335 2.0 5.0 0.00 0.00 0.00 78 1009.9
20260506012506 63 344 2.0 5.0 0.00 0.00 0.00 78 1009.9
20260506012406 63 335 2.0 5.0 0.00 0.00 0.00 78 1009.9
20260506012308 63 316 2.0 5.0 0.00 0.00 0.00 78 1009.9
20260506012204 63 266 2.0 4.0 0.00 0.00 0.00 78 1009.9
20260506012007 63 314 2.0 4.0 0.00 0.00 0.00 78 1010.0
20260506011907 63 279 2.0 4.0 0.00 0.00 0.00 78 1010.0
20260506011805 63 293 2.0 4.0 0.00 0.00 0.00 78 1009.9
20260506011706 63 266 2.0 4.0 0.00 0.00 0.00 78 1009.9
20260506011604 63 254 2.0 5.0 0.00 0.00 0.00 78 1010.0
20260506011507 63 254 2.0 5.0 0.00 0.00 0.00 78 1010.0
20260506011406 63 310 2.0 5.0 0.00 0.00 0.00 78 1010.0
20260506011306 63 340 2.0 5.0 0.00 0.00 0.00 78 1009.9
20260506011204 63 236 2.0 5.0 0.00 0.00 0.00 78 1010.0
20260506011105 63 236 2.0 5.0 0.00 0.00 0.00 78 1010.0
20260506011008 63 239 2.0 5.0 0.00 0.00 0.00 78 1009.9
20260506010907 63 268 2.0 5.0 0.00 0.00 0.00 77 1009.9
20260506010807 63 236 1.0 5.0 0.00 0.00 0.00 77 1009.9
20260506010706 63 225 1.0 4.0 0.00 0.00 0.00 77 1009.9
20260506010508 63 240 1.0 4.0 0.00 0.00 0.00 77 1009.9
20260506010206 63 249 1.0 5.0 0.00 0.00 0.00 77 1009.9
20260506010107 63 249 1.0 5.0 0.00 0.00 0.00 77 1009.8
20260506010011 64 249 1.0 5.0 0.00 0.00 0.00 77 1009.8
20260506005906 64 278 1.0 5.0 0.00 0.00 0.00 77 1009.9
20260506005706 64 249 1.0 5.0 0.00 0.00 0.00 77 1009.9
20260506005605 64 238 1.0 5.0 0.00 0.00 0.00 76 1010.0
20260506005508 64 238 1.0 5.0 0.00 0.00 0.00 76 1010.1
20260506005307 64 226 1.0 5.0 0.00 0.00 0.00 76 1010.0
20260506005205 64 277 1.0 4.0 0.00 0.00 0.00 76 1010.0
20260506005105 64 221 1.0 4.0 0.00 0.00 0.00 76 1010.0
20260506005007 64 261 1.0 4.0 0.00 0.00 0.00 76 1010.1
20260506004904 64 248 1.0 4.0 0.00 0.00 0.00 76 1010.1
20260506004806 64 247 1.0 4.0 0.00 0.00 0.00 76 1010.0
20260506004405 64 228 1.0 3.0 0.00 0.00 0.00 75 1010.0
20260506004305 64 228 1.0 3.0 0.00 0.00 0.00 75 1010.1
20260506004206 64 228 1.0 3.0 0.00 0.00 0.00 75 1010.0
20260506004006 64 228 1.0 4.0 0.00 0.00 0.00 75 1010.1
20260506003904 64 228 1.0 4.0 0.00 0.00 0.00 75 1010.0
20260506003804 64 206 1.0 4.0 0.00 0.00 0.00 75 1010.0
20260506003705 64 166 1.0 4.0 0.00 0.00 0.00 75 1010.1
20260506003506 64 46 1.0 4.0 0.00 0.00 0.00 75 1010.0
20260506003305 64 345 1.0 4.0 0.00 0.00 0.00 75 1010.0
20260506003204 64 349 1.0 4.0 0.00 0.00 0.00 75 1010.0
20260506003104 64 39 1.0 2.0 0.00 0.00 0.00 75 1010.0
20260506003007 64 39 1.0 2.0 0.00 0.00 0.00 75 1010.0
20260506002905 64 39 1.0 2.0 0.00 0.00 0.00 75 1010.1
20260506002804 64 39 1.0 2.0 0.00 0.00 0.00 75 1010.1
20260506002706 64 39 1.0 2.0 0.00 0.00 0.00 75 1010.1
20260506002606 64 39 0.0 2.0 0.00 0.00 0.00 75 1010.1
20260506002507 64 39 0.0 2.0 0.00 0.00 0.00 75 1010.1
20260506002405 64 39 0.0 2.0 0.00 0.00 0.00 75 1010.1
20260506002306 64 39 0.0 2.0 0.00 0.00 0.00 75 1010.1
20260506002204 64 39 0.0 2.0 0.00 0.00 0.00 75 1010.1
20260506002106 64 39 0.0 2.0 0.00 0.00 0.00 75 1010.2
20260506002006 65 39 0.0 2.0 0.00 0.00 0.00 75 1010.2
20260506001805 65 39 1.0 3.0 0.00 0.00 0.00 75 1010.2
20260506001705 65 39 1.0 7.0 0.00 0.00 0.00 75 1010.2
20260506001604 65 39 1.0 7.0 0.00 0.00 0.00 75 1010.2
20260506001507 65 39 1.0 7.0 0.00 0.00 0.00 75 1010.2
20260506001405 65 39 1.0 7.0 0.00 0.00 0.00 75 1010.2
20260506001305 65 39 1.0 7.0 0.00 0.00 0.00 75 1010.1
20260506001205 65 62 1.0 7.0 0.00 0.00 0.00 75 1010.1
20260506001105 65 297 1.0 7.0 0.00 0.00 0.00 75 1010.2
20260506001007 65 297 1.0 7.0 0.00 0.00 0.00 75 1010.2
20260506000906 65 297 1.0 7.0 0.00 0.00 0.00 75 1010.2
20260506000705 65 297 1.0 5.0 0.00 0.00 0.00 75 1010.2
20260506000606 65 297 1.0 6.0 0.00 0.00 0.00 75 1010.2
20260506000508 65 297 1.0 6.0 0.00 0.00 0.00 75 1010.2
20260506000405 65 306 1.0 6.0 0.00 0.00 0.00 75 1010.2
20260506000205 65 52 2.0 6.0 0.00 0.00 0.00 75 1010.3
20260506000106 65 32 2.0 6.0 0.00 0.00 0.00 75 1010.3
20260506000009 65 32 2.0 6.0 0.00 0.00 0.00 75 1010.3
20260505235705 65 38 2.0 5.0 0.00 0.00 0.00 76 1010.3
20260505235605 65 58 2.0 5.0 0.00 0.00 0.00 76 1010.3
20260505235506 65 25 2.0 4.0 0.00 0.00 0.00 76 1010.3
20260505235404 65 69 3.0 8.0 0.00 0.00 0.00 76 1010.3
20260505235305 65 359 3.0 8.0 0.00 0.00 0.00 76 1010.3
20260505235206 65 358 3.0 8.0 0.00 0.00 0.00 76 1010.3
20260505235105 65 321 3.0 10.0 0.00 0.00 0.00 76 1010.3
20260505234904 65 93 4.0 10.0 0.00 0.00 0.00 76 1010.2
20260505234805 65 52 4.0 10.0 0.00 0.00 0.00 76 1010.2
20260505234706 65 2 5.0 11.0 0.00 0.00 0.00 76 1010.3
20260505234605 65 37 5.0 11.0 0.00 0.00 0.00 76 1010.2
20260505234506 65 352 6.0 11.0 0.00 0.00 0.00 76 1010.1
20260505234406 65 41 6.0 11.0 0.00 0.00 0.00 76 1010.3
20260505234305 65 56 5.0 11.0 0.00 0.00 0.00 76 1010.3
20260505234205 65 69 6.0 11.0 0.00 0.00 0.00 76 1010.2
20260505234105 65 16 6.0 11.0 0.00 0.00 0.00 76 1010.2
20260505234007 65 88 6.0 11.0 0.00 0.00 0.00 76 1010.2
20260505233905 65 38 5.0 11.0 0.00 0.00 0.00 76 1010.2
20260505233801 65 41 5.0 11.0 0.00 0.00 0.00 76 1010.2
20260505233700 65 69 5.0 11.0 0.00 0.00 0.00 76 1010.2
20260505233601 65 43 5.0 11.0 0.00 0.00 0.00 76 1010.2
20260505233504 65 71 5.0 12.0 0.00 0.00 0.00 76 1010.2
20260505233400 65 54 5.0 12.0 0.00 0.00 0.00 76 1010.2
20260505233301 65 66 5.0 12.0 0.00 0.00 0.00 76 1010.2
20260505233202 65 57 5.0 12.0 0.00 0.00 0.00 76 1010.2
20260505233008 65 57 5.0 12.0 0.00 0.00 0.00 77 1010.1
20260505232904 65 35 5.0 12.0 0.00 0.00 0.00 77 1010.2
20260505232805 65 96 5.0 12.0 0.00 0.00 0.00 76 1010.1
20260505232705 65 75 4.0 12.0 0.00 0.00 0.00 76 1010.2
20260505232605 65 13 4.0 11.0 0.00 0.00 0.00 76 1010.1
20260505232508 65 87 4.0 11.0 0.00 0.00 0.00 76 1010.2
20260505232404 65 65 4.0 11.0 0.00 0.00 0.00 76 1010.2
20260505232206 65 56 4.0 11.0 0.00 0.00 0.00 76 1010.2
20260505232105 65 66 3.0 9.0 0.00 0.00 0.00 76 1010.2
20260505232006 65 198 3.0 9.0 0.00 0.00 0.00 76 1010.2
20260505231905 65 46 3.0 9.0 0.00 0.00 0.00 76 1010.2
20260505231805 65 53 3.0 9.0 0.00 0.00 0.00 76 1010.3
20260505231606 65 117 3.0 9.0 0.00 0.00 0.00 75 1010.2
20260505231506 65 83 3.0 10.0 0.00 0.00 0.00 75 1010.2
20260505231405 65 346 3.0 10.0 0.00 0.00 0.00 75 1010.3
20260505231308 65 56 3.0 10.0 0.00 0.00 0.00 75 1010.3
20260505231206 65 307 3.0 14.0 0.00 0.00 0.00 75 1010.3
20260505230906 65 37 4.0 14.0 0.00 0.00 0.00 75 1010.2
20260505230805 65 339 4.0 14.0 0.00 0.00 0.00 75 1010.2
20260505230706 65 66 4.0 14.0 0.00 0.00 0.00 75 1010.2
20260505230605 65 72 4.0 14.0 0.00 0.00 0.00 75 1010.2
20260505230507 65 37 4.0 14.0 0.00 0.00 0.00 75 1010.2
20260505230406 65 32 4.0 13.0 0.00 0.00 0.00 75 1010.2
20260505230304 64 29 4.0 13.0 0.00 0.00 0.00 75 1010.1
20260505230206 64 46 4.0 13.0 0.00 0.00 0.00 75 1010.2
20260505230104 64 71 5.0 13.0 0.00 0.00 0.00 75 1010.2
20260505230007 64 61 4.0 12.0 0.00 0.00 0.00 75 1010.2
20260505225803 64 102 5.0 12.0 0.00 0.00 0.00 75 1010.2
20260505225605 64 25 4.0 12.0 0.00 0.00 0.00 75 1010.2
20260505225505 64 23 4.0 12.0 0.00 0.00 0.00 75 1010.2
20260505225306 64 12 4.0 11.0 0.00 0.00 0.00 74 1010.2
20260505225105 64 57 4.0 11.0 0.00 0.00 0.00 74 1010.2
20260505225006 64 21 5.0 11.0 0.00 0.00 0.00 75 1010.2
20260505224904 64 10 5.0 12.0 0.00 0.00 0.00 75 1010.2
20260505224804 64 342 5.0 12.0 0.00 0.00 0.00 75 1010.2
20260505224604 64 303 5.0 12.0 0.00 0.00 0.00 75 1010.2
20260505224507 64 52 5.0 16.0 0.00 0.00 0.00 75 1010.1
20260505224404 64 251 5.0 16.0 0.00 0.00 0.00 75 1010.2
20260505224304 64 56 6.0 16.0 0.00 0.00 0.00 75 1010.1
20260505224204 64 64 6.0 16.0 0.00 0.00 0.00 75 1010.2
20260505224103 64 57 6.0 16.0 0.00 0.00 0.00 75 1010.1
20260505223903 64 41 5.0 16.0 0.00 0.00 0.00 75 1010.2
20260505223803 64 80 6.0 16.0 0.00 0.00 0.00 75 1010.1
20260505223703 64 56 5.0 16.0 0.00 0.00 0.00 75 1010.3
20260505223505 64 35 6.0 14.0 0.00 0.00 0.00 75 1010.2
20260505223305 64 44 6.0 14.0 0.00 0.00 0.00 76 1010.2
20260505223205 64 335 6.0 14.0 0.00 0.00 0.00 76 1010.3
20260505223104 64 8 6.0 14.0 0.00 0.00 0.00 76 1010.2
20260505223005 64 284 6.0 14.0 0.00 0.00 0.00 76 1010.2
20260505222903 64 56 6.0 14.0 0.00 0.00 0.00 76 1010.2
20260505222803 64 57 6.0 15.0 0.00 0.00 0.00 76 1010.3
20260505222705 64 48 6.0 15.0 0.00 0.00 0.00 76 1010.3
20260505222605 64 50 6.0 15.0 0.00 0.00 0.00 76 1010.2
20260505222403 64 77 5.0 15.0 0.00 0.00 0.00 77 1010.2
20260505222306 64 71 5.0 15.0 0.00 0.00 0.00 77 1010.1
20260505222204 64 249 4.0 15.0 0.00 0.00 0.00 77 1010.1
20260505222007 64 341 5.0 15.0 0.00 0.00 0.00 77 1010.1
20260505221903 64 48 5.0 16.0 0.00 0.00 0.00 78 1010.2
20260505221804 64 21 5.0 16.0 0.00 0.00 0.00 78 1010.1
20260505221705 64 249 5.0 16.0 0.00 0.00 0.00 78 1010.1
20260505221505 64 314 6.0 16.0 0.00 0.00 0.00 78 1010.2
20260505221305 64 272 6.0 16.0 0.00 0.00 0.00 78 1010.2
20260505221206 64 318 6.0 16.0 0.00 0.00 0.00 78 1010.2
20260505221008 64 25 6.0 16.0 0.00 0.00 0.00 78 1010.1
20260505220804 64 341 6.0 16.0 0.00 0.00 0.00 78 1010.1
20260505220605 64 22 6.0 16.0 0.00 0.00 0.00 79 1010.0
20260505220404 64 344 7.0 16.0 0.00 0.00 0.00 79 1010.0
20260505220305 64 335 7.0 16.0 0.00 0.00 0.00 79 1010.0
20260505220208 64 139 7.0 16.0 0.00 0.00 0.00 79 1010.0
20260505220008 64 23 7.0 16.0 0.00 0.00 0.00 79 1010.0
20260505215907 64 41 7.0 15.0 0.00 0.00 0.00 79 1009.9
20260505215807 64 358 7.0 15.0 0.00 0.00 0.00 79 1009.9
20260505215706 64 330 7.0 17.0 0.00 0.00 0.00 79 1010.0
20260505215606 64 40 6.0 17.0 0.00 0.00 0.00 79 1009.9
20260505215509 64 41 6.0 17.0 0.00 0.00 0.00 79 1009.8
20260505215206 64 353 7.0 17.0 0.00 0.00 0.00 80 1009.9
20260505215106 64 352 8.0 17.0 0.00 0.00 0.00 80 1009.9
20260505215008 64 27 8.0 17.0 0.00 0.00 0.00 79 1009.8
20260505214906 64 52 8.0 17.0 0.00 0.00 0.00 80 1009.7
20260505214707 64 283 8.0 17.0 0.00 0.00 0.00 80 1009.7
20260505214606 64 20 8.0 17.0 0.00 0.00 0.00 80 1009.7
20260505214509 65 77 8.0 17.0 0.00 0.00 0.00 80 1009.7
20260505214308 65 72 8.0 17.0 0.00 0.00 0.00 80 1009.6
20260505214207 65 52 8.0 17.0 0.00 0.00 0.00 80 1009.6
20260505214008 65 49 8.0 15.0 0.00 0.00 0.00 80 1009.6
20260505213907 65 55 8.0 16.0 0.00 0.00 0.00 80 1009.5
20260505213807 65 16 8.0 16.0 0.00 0.00 0.00 80 1009.5
20260505213706 65 58 8.0 16.0 0.00 0.00 0.00 80 1009.5
20260505213608 65 48 9.0 24.0 0.00 0.00 0.00 80 1009.5
20260505213508 65 20 9.0 24.0 0.00 0.00 0.00 80 1009.5
20260505213306 65 2 10.0 24.0 0.00 0.00 0.00 80 1009.4
20260505213206 65 54 10.0 24.0 0.00 0.00 0.00 80 1009.4
20260505213107 65 52 11.0 24.0 0.00 0.00 0.00 80 1009.3
20260505212906 65 16 10.0 24.0 0.00 0.00 0.00 80 1009.4
20260505212806 65 10 10.0 24.0 0.00 0.00 0.00 80 1009.3
20260505212707 65 352 9.0 24.0 0.00 0.00 0.00 80 1009.3
20260505212507 65 19 8.0 21.0 0.00 0.00 0.00 81 1009.4
20260505212307 66 351 8.0 21.0 0.00 0.00 0.00 81 1009.3
20260505212206 66 4 7.0 20.0 0.00 0.00 0.00 81 1009.3
20260505212105 66 26 7.0 20.0 0.00 0.00 0.00 81 1009.3
20260505212008 66 133 7.0 20.0 0.00 0.00 0.00 81 1009.3
20260505211907 66 221 7.0 20.0 0.00 0.00 0.00 81 1009.4
20260505211808 66 58 7.0 20.0 0.00 0.00 0.00 80 1009.2
20260505211706 66 295 7.0 20.0 0.00 0.00 0.00 80 1009.3
20260505211508 67 320 7.0 20.0 0.00 0.00 0.00 80 1009.1
20260505211407 67 330 7.0 20.0 0.00 0.00 0.00 79 1009.2
20260505211306 67 339 6.0 16.0 0.00 0.00 0.00 79 1009.2
20260505211205 67 299 6.0 16.0 0.00 0.00 0.00 79 1009.2
20260505211010 67 24 6.0 16.0 0.00 0.00 0.00 78 1009.1
20260505210906 67 285 6.0 15.0 0.00 0.00 0.00 78 1009.1
20260505210807 67 29 6.0 16.0 0.00 0.00 0.00 77 1009.0
20260505210706 67 301 6.0 16.0 0.00 0.00 0.00 77 1009.0
20260505210508 68 29 5.0 16.0 0.00 0.00 0.00 76 1008.9
20260505210407 68 342 5.0 16.0 0.00 0.00 0.00 76 1009.0
20260505210306 68 321 4.0 16.0 0.00 0.00 0.00 76 1008.9
20260505210106 68 33 4.0 16.0 0.00 0.00 0.00 75 1008.9
20260505210014 68 13 4.0 16.0 0.00 0.00 0.00 75 1008.9
20260505205906 68 357 3.0 12.0 0.00 0.00 0.00 74 1008.8
20260505205807 68 353 3.0 12.0 0.00 0.00 0.00 74 1008.8
20260505205707 68 28 3.0 12.0 0.00 0.00 0.00 74 1008.8
20260505205610 68 68 3.0 12.0 0.00 0.00 0.00 73 1008.8
20260505205508 69 13 2.0 12.0 0.00 0.00 0.00 73 1008.7
20260505205408 69 63 2.0 12.0 0.00 0.00 0.00 73 1008.7
20260505205307 69 44 3.0 12.0 0.00 0.00 0.00 72 1008.8
20260505205107 69 61 3.0 12.0 0.00 0.00 0.00 72 1008.7
20260505205011 69 50 3.0 12.0 0.00 0.00 0.00 72 1008.6
20260505204907 69 272 3.0 12.0 0.00 0.00 0.00 71 1008.7
20260505204807 69 343 3.0 12.0 0.00 0.00 0.00 71 1008.6
20260505204707 69 335 3.0 10.0 0.00 0.00 0.00 71 1008.6
20260505204509 69 44 4.0 10.0 0.00 0.00 0.00 70 1008.6
20260505204408 69 64 4.0 10.0 0.00 0.00 0.00 69 1008.6
20260505204307 69 341 4.0 10.0 0.00 0.00 0.00 68 1008.6
20260505204207 69 311 4.0 10.0 0.00 0.00 0.00 68 1008.6
20260505204107 69 321 4.0 10.0 0.00 0.00 0.00 67 1008.6
20260505204009 69 295 4.0 10.0 0.00 0.00 0.00 67 1008.5
20260505203908 69 317 4.0 10.0 0.00 0.00 0.00 67 1008.4
20260505203809 69 303 4.0 10.0 0.00 0.00 0.00 67 1008.6
20260505203707 69 30 3.0 10.0 0.00 0.00 0.00 67 1008.5
20260505203607 69 309 2.0 10.0 0.00 0.00 0.00 67 1008.5
20260505203509 69 347 2.0 10.0 0.00 0.00 0.00 66 1008.5
20260505203406 69 318 1.0 9.0 0.00 0.00 0.00 66 1008.5
20260505203308 69 258 1.0 9.0 0.00 0.00 0.00 67 1008.5
20260505203207 69 325 1.0 9.0 0.00 0.00 0.00 67 1008.6
20260505203107 69 325 1.0 9.0 0.00 0.00 0.00 67 1008.6
20260505203009 69 287 0.0 4.0 0.00 0.00 0.00 68 1008.4
20260505202907 69 199 0.0 0.0 0.00 0.00 0.00 68 1008.4
20260505202807 69 199 0.0 0.0 0.00 0.00 0.00 68 1008.4
20260505202709 69 199 0.0 0.0 0.00 0.00 0.00 68 1008.4
20260505202509 69 200 0.0 1.0 0.00 0.00 0.00 68 1008.3
20260505202407 69 200 0.0 2.0 0.00 0.00 0.00 68 1008.4
20260505202307 69 200 1.0 3.0 0.00 0.00 0.00 68 1008.3
20260505202207 69 200 1.0 3.0 0.00 0.00 0.00 68 1008.3
20260505202106 69 200 1.0 4.0 0.00 0.00 0.00 68 1008.3
20260505201907 69 177 1.0 4.0 0.00 0.00 0.00 69 1008.3
20260505201808 69 177 1.0 4.0 0.00 0.00 0.00 69 1008.3
20260505201707 69 177 1.0 4.0 0.00 0.00 0.00 69 1008.3
20260505201609 69 177 1.0 4.0 0.00 0.00 0.00 69 1008.3
20260505201508 69 177 1.0 4.0 0.00 0.00 0.00 69 1008.2
20260505201409 69 160 1.0 4.0 0.00 0.00 0.00 69 1008.2
20260505201309 69 320 1.0 4.0 0.00 0.00 0.00 69 1008.3
20260505201207 69 320 0.0 3.0 0.00 0.00 0.00 70 1008.2
20260505201107 69 241 0.0 3.0 0.00 0.00 0.00 70 1008.2
20260505201009 69 241 0.0 3.0 0.00 0.00 0.00 70 1008.2
20260505200706 69 276 0.0 0.0 0.00 0.00 0.00 70 1008.2
20260505200609 69 335 0.0 0.0 0.00 0.00 0.00 70 1008.2
20260505200509 69 335 0.0 0.0 0.00 0.00 0.00 71 1008.1
20260505200408 69 335 0.0 0.0 0.00 0.00 0.00 71 1008.1
20260505200307 69 335 0.0 0.0 0.00 0.00 0.00 71 1008.1
20260505200207 69 335 0.0 0.0 0.00 0.00 0.00 71 1008.0
20260505200107 69 335 0.0 0.0 0.00 0.00 0.00 71 1008.0
20260505200010 69 335 0.0 0.0 0.00 0.00 0.00 71 1008.1
20260505195905 69 335 0.0 1.0 0.00 0.00 0.00 71 1008.0
20260505195806 69 335 0.0 1.0 0.00 0.00 0.00 72 1008.0
20260505195707 69 335 0.0 1.0 0.00 0.00 0.00 72 1007.9
20260505195508 69 335 0.0 2.0 0.00 0.00 0.00 72 1008.0
20260505195307 69 335 1.0 2.0 0.00 0.00 0.00 72 1007.9
20260505195206 69 335 1.0 2.0 0.00 0.00 0.00 72 1007.9
20260505195105 69 335 1.0 2.0 0.00 0.00 0.00 71 1007.9
20260505195016 69 335 1.0 2.0 0.00 0.00 0.00 71 1007.8
20260505194806 69 335 1.0 3.0 0.00 0.00 0.00 71 1007.9
20260505194707 69 335 1.0 3.0 0.00 0.00 0.00 71 1007.8
20260505194606 69 335 1.0 3.0 0.00 0.00 0.00 72 1007.9
20260505194508 69 335 1.0 3.0 0.00 0.00 0.00 72 1007.8
20260505194406 69 335 0.0 3.0 0.00 0.00 0.00 72 1007.8
20260505194307 69 335 1.0 3.0 0.00 0.00 0.00 72 1007.8
20260505194206 69 335 1.0 3.0 0.00 0.00 0.00 72 1007.8
20260505194106 69 335 1.0 3.0 0.00 0.00 0.00 72 1007.8
20260505193906 69 335 1.0 3.0 0.00 0.00 0.00 72 1007.8
20260505193706 69 170 1.0 6.0 0.00 0.00 0.00 73 1007.8
20260505193406 69 170 1.0 6.0 0.00 0.00 0.00 73 1007.7
20260505193306 69 170 1.0 6.0 0.00 0.00 0.00 73 1007.7
20260505193206 69 170 1.0 6.0 0.00 0.00 0.00 73 1007.7
20260505193107 69 170 1.0 6.0 0.00 0.00 0.00 73 1007.7
20260505193009 69 170 1.0 6.0 0.00 0.00 0.00 73 1007.6
20260505192906 69 170 1.0 6.0 0.00 0.00 0.00 74 1007.6
20260505192806 69 164 1.0 5.0 0.00 0.00 0.00 74 1007.6
20260505192706 69 133 1.0 5.0 0.00 0.00 0.00 74 1007.6
20260505192607 69 343 1.0 5.0 0.00 0.00 0.00 74 1007.6
20260505192508 69 303 1.0 5.0 0.00 0.00 0.00 74 1007.6
20260505192405 69 128 1.0 5.0 0.00 0.00 0.00 74 1007.6
20260505192306 69 95 1.0 3.0 0.00 0.00 0.00 74 1007.7
20260505192207 69 95 1.0 3.0 0.00 0.00 0.00 74 1007.6
20260505192106 69 95 1.0 4.0 0.00 0.00 0.00 74 1007.6
20260505192008 69 134 1.0 4.0 0.00 0.00 0.00 75 1007.6
20260505191906 69 23 1.0 4.0 0.00 0.00 0.00 75 1007.6
20260505191806 69 23 2.0 4.0 0.00 0.00 0.00 75 1007.6
20260505191706 69 314 2.0 4.0 0.00 0.00 0.00 76 1007.6
20260505191607 69 314 2.0 4.0 0.00 0.00 0.00 75 1007.6
20260505191508 69 314 2.0 4.0 0.00 0.00 0.00 76 1007.6
20260505191407 69 314 1.0 4.0 0.00 0.00 0.00 76 1007.6
20260505191306 69 314 1.0 4.0 0.00 0.00 0.00 76 1007.5
20260505191106 69 231 1.0 3.0 0.00 0.00 0.00 77 1007.5
20260505191008 69 354 1.0 3.0 0.00 0.00 0.00 77 1007.4
20260505190906 69 45 1.0 3.0 0.00 0.00 0.00 77 1007.4
20260505190706 69 358 1.0 3.0 0.00 0.00 0.00 78 1007.5
20260505190606 69 314 2.0 4.0 0.00 0.00 0.00 78 1007.4
20260505190508 69 314 2.0 4.0 0.00 0.00 0.00 78 1007.3
20260505190407 69 314 2.0 4.0 0.00 0.00 0.00 78 1007.3
20260505190306 69 314 2.0 4.0 0.00 0.00 0.00 78 1007.4
20260505190205 69 314 2.0 4.0 0.00 0.00 0.00 78 1007.4
20260505190106 69 314 1.0 4.0 0.00 0.00 0.00 78 1007.4
20260505190008 69 352 1.0 4.0 0.00 0.00 0.00 78 1007.4
20260505185906 69 352 1.0 4.0 0.00 0.00 0.00 78 1007.4
20260505185806 69 80 1.0 4.0 0.00 0.00 0.00 78 1007.3
20260505185708 69 80 1.0 4.0 0.00 0.00 0.00 78 1007.3
20260505185507 69 131 1.0 3.0 0.00 0.00 0.00 78 1007.3
20260505185306 69 45 1.0 4.0 0.00 0.00 0.00 79 1007.3
20260505185007 69 45 2.0 6.0 0.00 0.00 0.00 79 1007.2
20260505184906 69 45 2.0 6.0 0.00 0.00 0.00 79 1007.3
20260505184805 69 45 2.0 6.0 0.00 0.00 0.00 79 1007.3
20260505184707 70 45 2.0 6.0 0.00 0.00 0.00 79 1007.3
20260505184607 70 45 2.0 6.0 0.00 0.00 0.00 78 1007.3
20260505184507 70 45 2.0 6.0 0.00 0.00 0.00 79 1007.3
20260505184406 70 45 2.0 6.0 0.00 0.00 0.00 78 1007.3
20260505184202 70 45 1.0 6.0 0.00 0.00 0.00 78 1007.2
20260505184101 70 59 1.0 6.0 0.00 0.00 0.00 78 1007.2
20260505184005 69 66 0.0 4.0 0.00 0.00 0.00 76 1007.2
20260505183903 69 212 1.0 4.0 0.00 0.00 0.00 76 1007.2
20260505183802 69 212 1.0 4.0 0.00 0.00 0.00 76 1007.2
20260505183702 69 212 1.0 5.0 0.00 0.00 0.00 76 1007.3
20260505183627 69 212 1.0 5.0 0.00 0.00 0.00 76 1007.2
20260505183402 69 212 1.0 5.0 0.00 0.00 0.00 76 1007.2
20260505183316 69 212 2.0 5.0 0.00 0.00 0.00 76 1007.2
20260505183216 69 212 2.0 5.0 0.00 0.00 0.00 76 1007.2
20260505183026 69 206 3.0 7.0 0.00 0.00 0.00 76 1007.2
20260505182908 69 141 3.0 9.0 0.00 0.00 0.00 76 1007.2
20260505182809 69 190 3.0 9.0 0.00 0.00 0.00 77 1007.2
20260505182627 69 280 4.0 9.0 0.00 0.00 0.00 77 1007.2
20260505182513 69 185 4.0 9.0 0.00 0.00 0.00 77 1007.2
20260505182408 69 192 4.0 10.0 0.00 0.00 0.00 77 1007.2
20260505182308 69 166 4.0 10.0 0.00 0.00 0.00 77 1007.2
20260505182207 69 172 5.0 10.0 0.00 0.00 0.00 77 1007.2
20260505182108 69 125 5.0 10.0 0.00 0.00 0.00 77 1007.2
20260505182008 69 93 5.0 10.0 0.00 0.00 0.00 77 1007.3
20260505181906 69 75 5.0 10.0 0.00 0.00 0.00 77 1007.2
20260505181806 69 169 5.0 10.0 0.00 0.00 0.00 77 1007.2
20260505181607 70 132 5.0 10.0 0.00 0.00 0.00 77 1007.2
20260505181507 69 68 5.0 11.0 0.00 0.00 0.00 76 1007.2
20260505181406 70 116 5.0 11.0 0.00 0.00 0.00 76 1007.2
20260505181307 70 166 5.0 11.0 0.00 0.00 0.00 75 1007.2
20260505181206 70 85 4.0 11.0 0.00 0.00 0.00 75 1007.2
20260505181106 70 112 4.0 11.0 0.00 0.00 0.00 74 1007.2
20260505180907 70 89 4.0 11.0 0.00 0.00 0.00 74 1007.3
20260505180806 70 185 4.0 11.0 0.00 0.00 0.00 74 1007.2
20260505180707 69 131 4.0 11.0 0.00 0.00 0.00 74 1007.2
20260505180608 70 205 4.0 11.0 0.00 0.00 0.00 74 1007.2
20260505180508 70 180 4.0 11.0 0.00 0.00 0.00 74 1007.2
20260505180406 70 124 4.0 11.0 0.00 0.00 0.00 74 1007.2
20260505180305 70 155 4.0 11.0 0.00 0.00 0.00 74 1007.7
20260505180205 70 137 4.0 9.0 0.00 0.00 0.00 74 1007.2
20260505180106 70 153 3.0 9.0 0.00 0.00 0.00 74 1007.2
20260505175906 70 170 3.0 9.0 0.00 0.00 0.00 74 1007.1
20260505175805 70 320 3.0 9.0 0.00 0.00 0.00 74 1007.2
20260505175707 70 167 3.0 9.0 0.00 0.00 0.00 74 1007.2
20260505175606 70 271 3.0 9.0 0.00 0.00 0.00 73 1007.3
20260505175406 70 139 3.0 9.0 0.00 0.00 0.00 73 1007.2
20260505175207 70 114 3.0 9.0 0.00 0.00 0.00 73 1007.1
20260505175106 70 202 3.0 9.0 0.00 0.00 0.00 73 1007.2
20260505175008 70 8 3.0 9.0 0.00 0.00 0.00 73 1007.1